Weather History for Marshall, MI

Change the Weather History Date:

Tuesday, August 13, 2013

  Actual Average (KBTL) Record (KBTL)
Temperature  
Mean Temperature 60 °F 70 °F  
Max Temperature 67 °F 81 °F 100 °F (1996)
Min Temperature 53 °F 58 °F 52 °F (2014)
Degree Days  
Heating Degree Days 5 1  
Month to date heating degree days 13  
Since 1 June heating degree days 85  
Since 1 July heating degree days 28  
Cooling Degree Days 0 5  
Month to date cooling degree days 77  
Year to date cooling degree days 438  
Since 1 June cooling degree days 400  
Growing Degree Days 10 (Base 50)    
Moisture  
Dew Point 52 °F    
Average Humidity 74    
Maximum Humidity 95    
Minimum Humidity 51    
Precipitation  
Precipitation 0.00 in 0.11 in 0.51 in (2011)
Month to date precipitation 1.45  
Year to date precipitation 19.52  
Sea Level Pressure  
Sea Level Pressure 30.00 in    
Wind  
Wind Speed 3 mph (NNW)    
Max Wind Speed 14 mph    
Max Gust Speed 18 mph    
Visibility 10 miles    
Events Fog    
T = Trace of Precipitation, MM = Missing Value Source: NWS Daily Summary

Daily Weather History Graph

Daily Weather History Graph

Search for Another Location

Airport:

Trip Planner

Search our weather history database for the weather conditions in past years. The results will help you decide how hot, cold, wet, or windy it might be!

Date:

Astronomy

Aug. 13, 2013 Rise Set
Actual Time 6:45 AM EDT 8:43 PM EDT
Civil Twilight 6:14 AM EDT 9:13 PM EDT
Nautical Twilight 5:37 AM EDT 9:50 PM EDT
Astronomical Twilight 4:57 AM EDT 10:30 PM EDT
Moon 1:48 PM EDT (8/13) No Moon Set
Length of Visible Light 14h 58m
Length of Day
13h 57m
Waxing Crescent, 41% of the Moon is Illuminated
Aug 13
Waxing Crescent
Aug 14
First Quarter
Aug 20
Full
Aug 28
Last Quarter
Sep 5
New

Hourly Weather History & Observations

Time (EDT) Temp. Dew Point Humidity Pressure Visibility Wind Dir Wind Speed Gust Speed Precip Events Conditions
12:14 AM 64.8 °F 63.3 °F 95% 29.90 in 0.5 mi Calm Calm - N/A Fog Fog
12:34 AM 65.5 °F 63.9 °F 94% 29.90 in 2.5 mi Calm Calm - N/A   Scattered Clouds
12:53 AM 65.1 °F 63.5 °F 94% 29.90 in 5.0 mi NW 3.5 mph - N/A   Clear
1:14 AM 64.4 °F 63.0 °F 95% 29.90 in 10.0 mi Calm Calm - N/A   Clear
1:34 AM 63.7 °F 62.2 °F 95% 29.90 in 10.0 mi Calm Calm - N/A   Clear
1:53 AM 63.0 °F 61.3 °F 94% 29.90 in 10.0 mi Calm Calm - N/A   Clear
2:14 AM 62.2 °F 60.6 °F 94% 29.90 in 10.0 mi Calm Calm - N/A   Scattered Clouds
2:34 AM 61.7 °F 60.1 °F 94% 29.90 in 10.0 mi Calm Calm - N/A   Clear
2:53 AM 61.5 °F 59.7 °F 94% 29.90 in 10.0 mi Calm Calm - N/A   Scattered Clouds
3:14 AM 61.0 °F 59.0 °F 93% 29.90 in 10.0 mi Calm Calm - N/A   Clear
3:34 AM 60.6 °F 58.5 °F 93% 29.90 in 10.0 mi Calm Calm - N/A   Clear
3:53 AM 60.1 °F 57.7 °F 92% 29.90 in 10.0 mi Calm Calm - N/A   Clear
4:14 AM 59.5 °F 57.4 °F 93% 29.90 in 10.0 mi Calm Calm - N/A   Clear
4:34 AM 59.0 °F 56.8 °F 93% 29.91 in 10.0 mi Calm Calm - N/A   Clear
4:53 AM 58.5 °F 56.5 °F 93% 29.91 in 10.0 mi Calm Calm - N/A   Clear
5:14 AM 57.7 °F 55.8 °F 93% 29.92 in 10.0 mi Calm Calm - N/A   Clear
5:34 AM 57.4 °F 55.8 °F 94% 29.93 in 10.0 mi Calm Calm - N/A   Scattered Clouds
5:53 AM 57.4 °F 55.6 °F 94% 29.94 in 10.0 mi Calm Calm - N/A   Mostly Cloudy
6:14 AM 56.8 °F 54.9 °F 93% 29.95 in 10.0 mi Calm Calm - N/A   Scattered Clouds
6:34 AM 55.9 °F 53.2 °F 91% 29.95 in 10.0 mi North 4.6 mph - N/A   Scattered Clouds
6:53 AM 55.0 °F 52.3 °F 91% 29.95 in 10.0 mi North 3.5 mph - N/A   Clear
7:14 AM 54.9 °F 52.3 °F 91% 29.96 in 10.0 mi Calm Calm - N/A   Clear
7:34 AM 54.9 °F 52.2 °F 91% 29.97 in 10.0 mi Calm Calm - N/A   Scattered Clouds
7:53 AM 55.0 °F 52.2 °F 90% 29.98 in 10.0 mi North 3.5 mph - N/A   Overcast
8:14 AM 54.7 °F 51.4 °F 89% 29.99 in 10.0 mi North 4.6 mph - N/A   Overcast
8:34 AM 55.0 °F 51.1 °F 86% 30.00 in 10.0 mi North 5.8 mph - N/A   Scattered Clouds
8:53 AM 55.6 °F 50.9 °F 84% 30.00 in 10.0 mi North 6.9 mph - N/A   Scattered Clouds
9:14 AM 56.1 °F 50.5 °F 82% 30.01 in 10.0 mi North 6.9 mph - N/A   Mostly Cloudy
9:33 AM 56.8 °F 50.7 °F 80% 30.02 in 10.0 mi North 3.5 mph - N/A   Mostly Cloudy
9:54 AM 58.5 °F 51.4 °F 77% 30.01 in 10.0 mi North 4.6 mph - N/A   Mostly Cloudy
10:14 AM 58.6 °F 50.7 °F 75% 30.01 in 10.0 mi North 5.8 mph - N/A   Scattered Clouds
10:33 AM 59.9 °F 50.7 °F 72% 30.01 in 10.0 mi North 5.8 mph - N/A   Mostly Cloudy
10:54 AM 60.1 °F 49.6 °F 68% 30.02 in 10.0 mi North 6.9 mph - N/A   Scattered Clouds
11:14 AM 60.4 °F 49.6 °F 68% 30.02 in 10.0 mi North 4.6 mph - N/A   Scattered Clouds
11:33 AM 60.8 °F 49.6 °F 67% 30.03 in 10.0 mi NNW 5.8 mph - N/A   Scattered Clouds
11:54 AM 61.5 °F 49.3 °F 64% 30.03 in 10.0 mi NW 4.6 mph - N/A   Clear
12:14 PM 61.7 °F 48.2 °F 61% 30.04 in 10.0 mi North 8.1 mph - N/A   Scattered Clouds
12:34 PM 62.2 °F 48.4 °F 60% 30.04 in 10.0 mi NW 4.6 mph - N/A   Scattered Clouds
12:54 PM 63.3 °F 48.7 °F 59% 30.04 in 10.0 mi WNW 6.9 mph - N/A   Scattered Clouds
1:13 PM 63.7 °F 48.0 °F 57% 30.04 in 10.0 mi North 8.1 mph - N/A   Scattered Clouds
1:34 PM 64.8 °F 48.2 °F 55% 30.04 in 10.0 mi NNW 6.9 mph - N/A   Scattered Clouds
1:54 PM 63.7 °F 47.8 °F 56% 30.04 in 10.0 mi North 3.5 mph - N/A   Mostly Cloudy
2:14 PM 63.7 °F 48.0 °F 57% 30.04 in 10.0 mi NW 4.6 mph - N/A   Mostly Cloudy
2:33 PM 64.2 °F 49.1 °F 58% 30.05 in 10.0 mi NNW 5.8 mph - N/A   Mostly Cloudy
2:54 PM 63.1 °F 48.4 °F 59% 30.05 in 10.0 mi NNW 4.6 mph - N/A   Overcast
3:14 PM 63.9 °F 48.9 °F 58% 30.05 in 10.0 mi NNW 6.9 mph - N/A   Mostly Cloudy
3:33 PM 65.5 °F 48.7 °F 55% 30.05 in 10.0 mi NW 8.1 mph 17.3 mph N/A   Scattered Clouds
3:54 PM 64.9 °F 47.1 °F 52% 30.05 in 10.0 mi NW 8.1 mph - N/A   Mostly Cloudy
4:14 PM 64.9 °F 48.7 °F 56% 30.04 in 10.0 mi NW 6.9 mph - N/A   Mostly Cloudy
4:33 PM 66.4 °F 47.8 °F 51% 30.04 in 10.0 mi NW 5.8 mph - N/A   Scattered Clouds
4:54 PM 66.4 °F 47.5 °F 51% 30.04 in 10.0 mi NNW 5.8 mph - N/A   Scattered Clouds
5:14 PM 67.1 °F 48.2 °F 51% 30.04 in 10.0 mi WNW 13.8 mph 17.3 mph N/A   Scattered Clouds
5:33 PM 66.4 °F 47.7 °F 51% 30.04 in 10.0 mi NW 10.4 mph - N/A   Clear
5:54 PM 65.7 °F 47.7 °F 52% 30.04 in 10.0 mi NNW 8.1 mph - N/A   Scattered Clouds
6:13 PM 65.5 °F 47.8 °F 53% 30.04 in 10.0 mi NW 9.2 mph - N/A   Scattered Clouds
6:34 PM 66.4 °F 48.9 °F 53% 30.04 in 10.0 mi WNW 12.7 mph 18.4 mph N/A   Mostly Cloudy
6:54 PM 65.3 °F 48.2 °F 54% 30.04 in 10.0 mi WNW 9.2 mph - N/A   Scattered Clouds
7:13 PM 64.6 °F 47.8 °F 55% 30.04 in 10.0 mi WNW 9.2 mph - N/A   Clear
7:34 PM 63.9 °F 48.7 °F 58% 30.04 in 10.0 mi WNW 9.2 mph - N/A   Clear
7:53 PM 62.6 °F 48.6 °F 60% 30.05 in 10.0 mi NW 4.6 mph - N/A   Scattered Clouds
8:14 PM 62.1 °F 49.3 °F 63% 30.05 in 10.0 mi NW 3.5 mph - N/A   Mostly Cloudy
8:34 PM 60.8 °F 48.9 °F 65% 30.05 in 10.0 mi NW 4.6 mph - N/A   Scattered Clouds
8:53 PM 59.4 °F 48.6 °F 67% 30.05 in 10.0 mi NW 3.5 mph - N/A   Clear
9:14 PM 58.5 °F 47.8 °F 68% 30.06 in 10.0 mi Calm Calm - N/A   Clear
9:34 PM 57.9 °F 47.3 °F 68% 30.07 in 10.0 mi Calm Calm - N/A   Clear
9:53 PM 57.4 °F 47.1 °F 69% 30.07 in 10.0 mi Calm Calm - N/A   Clear
10:14 PM 56.3 °F 47.5 °F 72% 30.08 in 10.0 mi Calm Calm - N/A   Clear
10:34 PM 55.0 °F 47.5 °F 76% 30.08 in 10.0 mi WNW 3.5 mph - N/A   Clear
10:53 PM 54.0 °F 47.8 °F 80% 30.08 in 10.0 mi WNW 3.5 mph - N/A   Clear
11:14 PM 53.6 °F 47.8 °F 81% 30.09 in 10.0 mi Calm Calm - N/A   Clear
11:34 PM 53.1 °F 47.8 °F 82% 30.09 in 10.0 mi Calm Calm - N/A   Clear
11:53 PM 53.2 °F 47.8 °F 82% 30.10 in 10.0 mi Calm Calm - N/A   Clear